User: anonymous   Login
Location: Chiroubles
(46.1812°N, 4.6660°E)
Time: 08:17:43
(UTC+00:00)
Language:

Cosmos 1862 Rocket - Orbit

View from above orbital plane
View from above orbital plane
View from above satellite
View from above satellite

Ground track
Ground track

The orbit data is extracted from the following two-line orbital elements,

1 18153U 87055B   20293.85394450 +.00000093 +00000-0 +83774-5 0  9993
2 18153 082.5033 038.3629 0022177 025.9262 334.3058 14.83298829799305
Epoch (UTC): 19 October 2020 20:29:40
Eccentricity: 0.0022177
inclination: 82.5033°
perigee height: 603 km
apogee height: 634 km
right ascension of ascending node: 38.3629°
argument of perigee: 25.9262°
revolutions per day: 14.83298829
mean anomaly at epoch: 334.3058°
orbit number at epoch: 79930

The dashed part of the orbit path shows where the satellite is in the earth's shadow,  

DLR